Alexandria, MN

4:19 AM CDT on April 24, 2018 (GMT -0500)
Chandler

Weather History for KAXN - April, 2014

Change the Weather History Date:

Tuesday, April 8, 2014

  Actual Average Record
Temperature  
Mean Temperature 40 °F -  
Max Temperature 50 °F 48 °F 83 °F (1988)
Min Temperature 32 °F 30 °F 3 °F (1997)
Degree Days  
Heating Degree Days 25    
Moisture  
Dew Point 29 °F    
Average Humidity 70    
Maximum Humidity 85    
Minimum Humidity 46    
Precipitation  
Precipitation 0.00 in - - ()
Sea Level Pressure  
Sea Level Pressure 30.00 in    
Wind  
Wind Speed 11 mph (NNW)    
Max Wind Speed 17 mph    
Max Gust Speed 25 mph    
Visibility 10 miles    
Events      
Averages and records for this station are not official NWS values.
T = Trace of Precipitation, MM = Missing Value Source: NWS Daily Summary

Daily Weather History Graph

Daily Weather History Graph

Search for Another Location

Airport or City:

Astronomy

Apr. 08, 2014 Rise Set
Actual Time 6:48 AM CDT 7:59 PM CDT
Civil Twilight 6:17 AM CDT 8:29 PM CDT
Nautical Twilight 5:40 AM CDT 9:06 PM CDT
Astronomical Twilight 5:02 AM CDT 9:46 PM CDT
Moon 1:35 PM CDT (4/8) 3:20 AM CDT (4/8)
Length of Visible Light 14h 12m
Length of Day
13h 10m
Waxing Gibbous, 63% of the Moon is Illuminated
Apr 8
Waxing Gibbous
Apr 15
Full
Apr 22
Last Quarter
Apr 29
New
May 6
First Quarter

Hourly Weather History & Observations

Time (CDT) Temp. Windchill Dew Point Humidity Pressure Visibility Wind Dir Wind Speed Gust Speed Precip Events Conditions
12:53 AM 37.9 °F 32.1 °F 30.9 °F 76% 29.93 in 10.0 mi NNW 8.1 mph - N/A   Scattered Clouds
1:00 AM 37.4 °F 30.3 °F 30.2 °F 75% 29.90 in 10.0 mi NNW 10.4 mph - N/A   Mostly Cloudy
1:35 AM 37.4 °F 30.8 °F 30.2 °F 75% 29.90 in 10.0 mi NNW 9.2 mph - N/A   Scattered Clouds
1:53 AM 37.0 °F 30.4 °F 30.0 °F 76% 29.94 in 10.0 mi NNW 9.2 mph - N/A   Clear
2:53 AM 35.1 °F 26.9 °F 30.0 °F 82% 29.94 in 10.0 mi NNW 11.5 mph - N/A   Partly Cloudy
3:11 AM 35.6 °F 28.6 °F 30.2 °F 81% 29.91 in 10.0 mi NNW 9.2 mph - N/A   Mostly Cloudy
3:53 AM 35.1 °F 26.4 °F 30.0 °F 82% 29.95 in 10.0 mi NNW 12.7 mph - N/A   Overcast
4:53 AM 34.0 °F 25.5 °F 28.9 °F 82% 29.96 in 10.0 mi NNW 11.5 mph 24.2 mph N/A   Overcast
5:53 AM 33.1 °F 23.9 °F 28.0 °F 82% 29.98 in 10.0 mi NNW 12.7 mph - N/A   Scattered Clouds
6:22 AM 33.8 °F 24.8 °F 28.4 °F 81% 29.96 in 10.0 mi NNW 12.7 mph - N/A   Mostly Cloudy
6:53 AM 33.1 °F 24.4 °F 28.0 °F 82% 30.01 in 10.0 mi North 11.5 mph 19.6 mph N/A   Overcast
7:35 AM 33.8 °F 23.2 °F 28.4 °F 81% 29.98 in 10.0 mi NNW 17.3 mph 23.0 mph N/A   Mostly Cloudy
7:53 AM 33.1 °F 22.2 °F 28.0 °F 82% 30.03 in 10.0 mi NNW 17.3 mph 21.9 mph N/A   Mostly Cloudy
8:53 AM 32.0 °F 21.2 °F 27.0 °F 82% 30.06 in 10.0 mi North 16.1 mph - N/A   Overcast
9:53 AM 33.1 °F 23.0 °F 28.9 °F 85% 30.07 in 10.0 mi NNW 15.0 mph - N/A   Overcast
10:53 AM 37.0 °F 28.9 °F 30.0 °F 76% 30.09 in 10.0 mi NNW 12.7 mph - N/A   Scattered Clouds
11:53 AM 41.0 °F 34.7 °F 30.9 °F 67% 30.09 in 10.0 mi NNW 10.4 mph - N/A   Clear
12:53 PM 44.1 °F 37.4 °F 30.9 °F 60% 30.07 in 10.0 mi NNW 13.8 mph 18.4 mph N/A   Clear
1:53 PM 46.9 °F - 30.9 °F 54% 30.06 in 10.0 mi NW 13.8 mph - N/A   Clear
2:53 PM 48.0 °F - 30.9 °F 52% 30.06 in 10.0 mi NNW 16.1 mph 25.3 mph N/A   Partly Cloudy
3:53 PM 48.9 °F - 30.0 °F 48% 30.04 in 10.0 mi NNW 10.4 mph - N/A   Clear
4:53 PM 46.9 °F - 28.0 °F 48% 30.04 in 10.0 mi NW 10.4 mph - N/A   Scattered Clouds
5:53 PM 48.0 °F - 28.0 °F 46% 30.04 in 10.0 mi WNW 10.4 mph - N/A   Partly Cloudy
6:53 PM 46.9 °F - 28.9 °F 50% 30.03 in 10.0 mi NW 8.1 mph - N/A   Clear
7:53 PM 44.1 °F 41.5 °F 28.9 °F 55% 30.03 in 10.0 mi West 4.6 mph - N/A   Clear
8:53 PM 42.1 °F 40.2 °F 28.9 °F 60% 30.02 in 10.0 mi South 3.5 mph - N/A   Scattered Clouds
9:53 PM 39.0 °F 34.8 °F 30.0 °F 70% 30.00 in 10.0 mi SSE 5.8 mph - N/A   Overcast
10:53 PM 37.0 °F 32.4 °F 28.9 °F 73% 29.98 in 10.0 mi South 5.8 mph - N/A   Clear
11:53 PM 37.9 °F 32.1 °F 28.9 °F 70% 29.96 in 10.0 mi South 8.1 mph - N/A   Partly Cloudy